Regional Weather Roundup
Issued by NWS

Home | Current Version | Previous Version | Graphics & Text | Print | Product List | Glossary On
Versions: 1 2 3 4 5 6 7 8 9 10 11 12 13 14 15 16 17 18 19 20 21 22 23 24 25 26 27 28 29 30 31 32 33 34 35 36 37 38 39 40 41 42 43 44 45 46 47 48 49 50
000
ASUS43 KDMX 220507
RWRIA

WEATHER ROUNDUP FOR IOWA
NATIONAL WEATHER SERVICE DES MOINES IA
1200 AM CDT FRI MAY 22 2015

NOTE: "FAIR" INDICATES FEW OR NO CLOUDS BELOW 12,000 FEET WITH NO
SIGNIFICANT WEATHER AND/OR OBSTRUCTIONS TO VISIBILITY.

* - THESE STATIONS ARE NOT NWS STATIONS...THUS NOT UNDER NWS
QUALITY CONTROL.  THEY ALSO DO NOT REPORT WEATHER SUCH
AS PRECIPITATION OR FOG.

IAZ001>003-012>014-020>022-031>034-043>046-220600-
   NORTHWEST IOWA

CITY           SKY/WX    TMP DP  RH WIND       PRES   REMARKS
CARROLL *      PTCLDY    54  41  62 W7        30.15R
CHEROKEE *     CLEAR     52  43  71 CALM      30.15R
DENISON *      CLEAR     55  41  58 CALM      30.14S
LE MARS *      CLEAR     57  41  54 CALM      30.16R
ORANGE CITY *  CLEAR     55  41  58 NW6       30.16S
SHELDON *      PTCLDY    50  39  66 SW6       30.14R
SIOUX CITY     CLEAR     55  37  50 NW6       30.16R
SPENCER        CLEAR     48  39  71 W5        30.14R
STORM LAKE *   CLEAR     55  39  54 NW9       30.16R
$$

IAZ055>058-069>071-079>083-090>094-220600-
   SOUTHWEST IOWA

CITY           SKY/WX    TMP DP  RH WIND       PRES   REMARKS
ATLANTIC *     CLEAR     55  43  62 W9        30.16S
AUDUBON *      CLEAR     55  43  62 W5        30.17R
CLARINDA *     CLEAR     54  45  71 SW5       30.20R
COUNCIL BLFS * CLEAR     55  43  62 SW8       30.18R
CRESTON *      CLEAR     54  45  71 W9        30.17R
HARLAN  *      CLEAR     55  43  62 W9        30.20R
LAMONI         CLEAR     59  44  57 W13       30.16R
RED OAK *      CLEAR     57  43  58 W8        30.18R
SHENANDOAH *   CLEAR     52  46  82 SW7       30.20R
$$

IAZ047>049-059>061-072>074-084-220600-
   CENTRAL IOWA

CITY           SKY/WX    TMP DP  RH WIND       PRES   REMARKS
AMES           CLEAR     53  41  63 W5        30.11S
ANKENY *       CLEAR     55  43  62 W9        30.12R
CHARITON *       N/A     57  45  62 W9        30.13S
DES MOINES     PTCLDY    59  42  53 W6        30.13R
GRINNELL*      CLEAR     55  37  50 W6        30.10S
KNOXVILLE *    CLEAR     55  45  67 W9        30.12R
MARSHALLTOWN   CLEAR     50  34  54 NW6       30.09R
PELLA *        CLEAR     56  49  79 W8        30.12S
PERRY *          N/A     54  43  66 W10       30.14R
$$

IAZ004>006-015-016-023>025-035-036-220600-
   NORTH CENTRAL IOWA

CITY           SKY/WX    TMP DP  RH WIND       PRES   REMARKS
ALGONA *       CLEAR     57  32  38 NW8       30.13R
CLARION *      CLEAR     52  36  54 CALM      30.11S
ESTHERVILLE    CLEAR     50  30  46 NW8       30.13R
MASON CITY     CLEAR     48  36  63 W7        30.12R
FOREST CITY *  CLEAR     46  37  71 CALM      30.12R
IOWA FALLS *     N/A     48  36  61 NW6       30.11S
$$

IAZ007>011-017>019-026>030-037>042-050>054-066-220600-
   NORTHEAST IOWA

CITY           SKY/WX    TMP DP  RH WIND       PRES   REMARKS
CEDAR RAPIDS   CLEAR     53  35  50 NW7       30.07R
CHARLES CITY * CLEAR     54  37  54 W5        30.10R
CLINTON *      CLEAR     52  41  66 W5        30.07S
DECORAH *      CLEAR     55  36  47 CALM      30.07R
DUBUQUE        CLEAR     53  38  56 NW8       30.05S
MONTICELLO *   CLEAR     50  43  76 CALM      30.06S
OELWEIN *      CLEAR     54  37  54 NW6       30.09R
WATERLOO       CLEAR     48  41  76 NW3       30.08S
$$

IAZ064-065-067-068-078-220600-
   EAST CENTRAL IOWA

CITY           SKY/WX    TMP DP  RH WIND       PRES   REMARKS
DAVENPORT      CLEAR     54  43  66 W5        30.06S
IOWA CITY      CLEAR     51  41  68 W3        30.08S
MT. PLEASANT * CLEAR     55  46  71 W8        30.10S
MUSCATINE *    CLEAR     57  45  62 W9        30.07R
QUAD CITIES    CLEAR     55  44  66 W6        30.05R
$$

IAZ062-063-075>077-085>089-095>099-220600-
   SOUTHEAST IOWA

CITY           SKY/WX    TMP DP  RH WIND       PRES   REMARKS
BURLINGTON     CLEAR     58  48  69 W9        30.09R
FAIRFIELD *    CLEAR     57  46  67 W8        30.10S
FORT MADISON * CLEAR     57  48  72 SW8       30.11R
KEOKUK *       CLEAR     59  48  67 SW12      30.10S
OSKALOOSA *      N/A     55  45  67 W9        30.11R
CENTERVILLE *  CLEAR     55  55 100 W9        30.15S
OTTUMWA        CLEAR     53  45  74 W8        30.11R
WASHINGTON *   CLEAR     57  45  62 W7        30.10R
$$

ABBREVIATIONS USED IN REMARKS
   TC - TEMPERATURES IN CELSIUS
  WCI - WIND CHILL INDEX
   HX - HEAT INDEX
  VSB - VISIBILITY
$$



USA.gov is the U.S. government's official web portal to all federal, state and local government web resources and services.